KD9BEW Weather Reports


Display with metric or nautical units.
time (UTC)temp
F
wind
direction
speed
MPH
gust
MPH
rain 1hr
in
rain 24hr
in
rain mn
in
humidity
%
barometer
mb
20260509224552 53 317 2.0 7.0 0.00 0.00 0.00 37 1009.1
20260509223056 54 24 1.0 10.0 0.00 0.00 0.00 38 1009.0
20260509221555 55 15 2.0 8.0 0.00 0.00 0.00 35 1008.9
20260509220057 55 252 4.0 10.0 0.00 0.00 0.00 38 1008.8
20260509214555 55 336 3.0 14.0 0.00 0.00 0.00 36 1008.8
20260509213058 54 161 2.0 10.0 0.00 0.00 0.00 36 1008.7
20260509211557 53 108 1.0 8.0 0.00 0.00 0.00 38 1008.7
20260509210106 53 304 4.0 9.0 0.00 0.00 0.00 37 1008.7
20260509204600 53 288 3.0 12.0 0.00 0.00 0.00 38 1008.6
20260509203058 53 256 3.0 12.0 0.00 0.00 0.00 37 1008.6
20260509201555 52 336 3.0 11.0 0.00 0.00 0.00 40 1008.4
20260509200108 52 277 5.0 11.0 0.00 0.00 0.00 38 1008.2
20260509194555 53 268 4.0 11.0 0.00 0.00 0.00 37 1008.2
20260509193056 53 315 5.0 14.0 0.00 0.00 0.00 39 1008.0
20260509191554 52 302 4.0 10.0 0.00 0.00 0.00 42 1007.8
20260509190058 53 281 5.0 12.0 0.00 0.00 0.00 39 1007.8
20260509184645 53 56 3.0 12.0 0.00 0.00 0.00 41 1007.5
20260509183109 53 275 4.0 13.0 0.00 0.00 0.00 40 1007.4
20260509181558 52 313 4.0 13.0 0.00 0.00 0.00 41 1007.1
20260509180110 53 279 3.0 13.0 0.00 0.00 0.00 41 1006.8
20260509174554 53 69 2.0 10.0 0.00 0.00 0.00 41 1006.7
20260509173058 53 291 5.0 13.0 0.00 0.00 0.00 40 1006.4
20260509171556 53 299 4.0 11.0 0.00 0.00 0.00 41 1006.1
20260509170100 52 215 2.0 14.0 0.00 0.00 0.00 44 1006.0
20260509164554 52 310 3.0 9.0 0.00 0.00 0.00 43 1005.9
20260509163109 53 338 4.0 12.0 0.00 0.00 0.00 40 1005.5
20260509161601 53 275 4.0 12.0 0.00 0.00 0.00 40 1005.0
20260509160055 54 261 3.0 14.0 0.00 0.00 0.00 38 1004.8
20260509154555 52 327 3.0 16.0 0.00 0.00 0.00 39 1004.5
20260509153057 52 300 4.0 12.0 0.00 0.00 0.00 37 1004.4
20260509151557 52 284 4.0 12.0 0.00 0.00 0.00 38 1004.1
20260509150056 52 23 5.0 14.0 0.00 0.00 0.00 38 1004.0
20260509144558 52 240 3.0 10.0 0.00 0.00 0.00 38 1003.8
20260509143057 52 234 2.0 10.0 0.00 0.00 0.00 39 1003.7
20260509141608 50 38 3.0 10.0 0.00 0.00 0.00 40 1003.5
20260509134557 48 253 3.0 11.0 0.00 0.00 0.00 41 1003.5
20260509133052 48 275 2.0 8.0 0.00 0.00 0.00 42 1003.2
20260509131555 47 22 3.0 9.0 0.00 0.00 0.00 41 1003.0
20260509130059 47 44 0.0 9.0 0.00 0.00 0.00 43 1003.0
20260509124600 47 261 0.0 3.0 0.00 0.00 0.00 43 1002.7
20260509123101 47 0 1.0 4.0 0.00 0.00 0.00 43 1002.4
20260509121552 47 0 0.0 5.0 0.00 0.00 0.00 44 1002.5
20260509120054 47 0 0.0 3.0 0.00 0.00 0.00 43 1002.2
20260509114556 47 290 0.0 1.0 0.00 0.00 0.00 43 1002.1
20260509113118 47 0 0.0 5.0 0.00 0.00 0.00 43 1001.7
20260509111600 47 244 0.0 3.0 0.00 0.00 0.00 44 1001.6
20260509110053 48 15 0.0 3.0 0.00 0.00 0.00 45 1001.5
20260509104559 48 232 0.0 3.0 0.00 0.00 0.00 46 1001.2
20260509103058 48 261 0.0 6.0 0.00 0.00 0.00 47 1001.0
20260509101555 49 31 1.0 8.0 0.00 0.00 0.00 47 1000.9
20260509100110 49 267 1.0 7.0 0.00 0.00 0.00 47 1000.9
20260509094555 49 0 0.0 2.0 0.00 0.00 0.00 48 1000.6
20260509093053 49 224 0.0 1.0 0.00 0.00 0.00 49 1000.5
20260509091605 49 0 0.0 2.0 0.00 0.00 0.00 49 1000.5
20260509090056 49 272 1.0 3.0 0.00 0.00 0.00 50 1000.5
20260509084555 49 0 1.0 4.0 0.00 0.00 0.00 51 1000.5
20260509083057 48 186 0.0 2.0 0.00 0.00 0.00 55 1000.4
20260509081601 47 0 0.0 2.0 0.00 0.00 0.00 56 1000.5
20260509080054 48 155 0.0 1.0 0.00 0.00 0.00 56 1000.5
20260509074555 49 0 0.0 1.0 0.00 0.00 0.00 52 1000.2
20260509073105 50 0 0.0 1.0 0.00 0.00 0.00 47 1000.3
20260509071554 50 0 0.0 2.0 0.00 0.00 0.00 47 1000.5
20260509070059 50 0 0.0 1.0 0.00 0.00 0.00 48 1000.8
20260509064554 50 0 0.0 1.0 0.00 0.00 0.00 49 1000.7
20260509063059 50 123 0.0 1.0 0.00 0.00 0.00 49 1000.6
20260509061608 51 174 0.0 1.0 0.00 0.00 0.00 45 1001.0
20260509054602 52 0 0.0 1.0 0.00 0.00 0.00 44 1000.5
20260509053100 52 154 0.0 3.0 0.00 0.00 0.00 43 1000.6
20260509051557 53 271 0.0 4.0 0.00 0.00 0.00 43 1000.7
20260509050107 53 0 0.0 2.0 0.00 0.00 0.00 43 1000.6
20260509044559 54 273 1.0 3.0 0.00 0.00 0.00 43 1000.5
20260509043106 54 272 1.0 4.0 0.00 0.00 0.00 44 1000.6
20260509041602 53 269 1.0 6.0 0.00 0.00 0.00 45 1000.5
20260509040058 51 279 0.0 2.0 0.00 0.00 0.00 49 1000.1
20260509034605 51 0 0.0 1.0 0.00 0.00 0.00 52 999.9
20260509033059 52 0 0.0 0.0 0.00 0.00 0.00 49 999.8
20260509031556 54 0 0.0 0.0 0.00 0.00 0.00 46 999.9
20260509024555 55 163 0.0 1.0 0.00 0.00 0.00 46 999.6
20260509023054 56 0 0.0 2.0 0.00 0.00 0.00 42 999.6
20260509021555 57 0 1.0 3.0 0.00 0.00 0.00 43 999.6
20260509020053 56 161 0.0 1.0 0.00 0.00 0.00 41 999.6
20260509014554 57 0 0.0 1.0 0.00 0.00 0.00 41 999.6
20260509013058 58 0 0.0 0.0 0.00 0.00 0.00 38 999.6
20260509011555 60 0 0.0 0.0 0.00 0.00 0.00 35 999.7
20260509010056 61 0 0.0 2.0 0.00 0.00 0.00 31 999.8
20260509004557 62 0 0.0 2.0 0.00 0.00 0.00 30 999.8
20260509003058 62 0 1.0 3.0 0.00 0.00 0.00 30 999.9
20260509001553 63 0 1.0 6.0 0.00 0.00 0.00 29 999.9
20260509000056 63 223 2.0 7.0 0.00 0.00 0.00 28 1000.1
20260508234557 63 264 1.0 9.0 0.00 0.00 0.00 27 1000.2
20260508233108 64 265 2.0 10.0 0.00 0.00 0.00 27 1000.3
20260508231633 64 218 3.0 8.0 0.00 0.00 0.00 26 1000.5